KC4LW Weather Reports


Display with metric or nautical units.
time (UTC)temp
F
wind
direction
speed
MPH
gust
MPH
rain 1hr
in
rain 24hr
in
rain mn
in
humidity
%
barometer
mb
20260902211556 82 80 1.0 6.0 0.00 0.00 0.00 89 1015.3
20260902210055 82 99 1.0 8.0 0.00 0.00 0.00 88 1014.9
20260902204602 82 103 2.0 8.0 0.00 0.00 0.00 87 1014.9
20260902203058 82 97 1.0 4.0 0.00 0.00 0.00 86 1015.0
20260902201607 82 52 0.0 10.0 0.00 0.00 0.00 86 1014.7
20260902200057 82 90 2.0 13.0 0.00 0.00 0.00 87 1015.0
20260902194603 84 98 2.0 10.0 0.00 0.00 0.00 91 1015.1
20260902193105 84 330 3.0 10.0 0.00 0.00 0.00 90 1015.2
20260902191601 85 38 1.0 9.0 0.00 0.00 0.00 89 1015.1
20260902190057 84 127 0.0 7.0 0.00 0.00 0.00 90 1015.4
20260902184557 84 112 2.0 9.0 0.00 0.00 0.00 89 1015.4
20260902183057 84 19 1.0 7.0 0.00 0.00 0.00 88 1015.5
20260902181556 84 80 0.0 4.0 0.00 0.00 0.00 88 1015.6
20260902180100 84 103 1.0 7.0 0.00 0.00 0.00 88 1015.9
20260902174556 84 126 1.0 8.0 0.00 0.00 0.00 88 1015.7
20260902173056 84 96 2.0 8.0 0.00 0.00 0.00 87 1015.5
20260902171608 85 87 1.0 7.0 0.00 0.00 0.00 85 1015.9
20260902170104 85 110 2.0 7.0 0.00 0.00 0.00 84 1016.1
20260902164604 86 57 1.0 7.0 0.00 0.00 0.00 84 1016.1
20260902163101 86 153 2.0 8.0 0.00 0.00 0.00 85 1016.1
20260902161614 86 132 1.0 9.0 0.00 0.00 0.00 85 1016.3
20260902160116 86 200 1.0 6.0 0.00 0.00 0.00 84 1016.5
20260902154601 87 23 1.0 8.0 0.00 0.00 0.00 83 1016.5
20260902153058 88 116 1.0 9.0 0.00 0.00 0.00 82 1016.8
20260902151606 87 344 2.0 9.0 0.00 0.00 0.00 82 1016.9
20260902144602 88 88 0.0 8.0 0.00 0.00 0.00 82 1016.7
20260902143100 88 30 1.0 4.0 0.00 0.00 0.00 83 1016.5
20260902141555 87 0 1.0 9.0 0.00 0.00 0.00 86 1016.5
20260902140058 85 32 2.0 10.0 0.00 0.00 0.00 86 1016.6
20260902134600 86 59 2.0 9.0 0.00 0.00 0.00 86 1016.4
20260902133108 85 338 1.0 10.0 0.00 0.00 0.00 87 1016.4
20260902131556 85 11 2.0 6.0 0.00 0.00 0.00 89 1016.2
20260902130057 83 114 1.0 3.0 0.00 0.00 0.00 93 1016.3
20260902124559 82 344 1.0 7.0 0.00 0.00 0.00 97 1016.3
20260902123108 81 0 1.0 3.0 0.00 0.00 0.00 99 1016.3
20260902121556 80 0 1.0 4.0 0.00 0.00 0.00 99 1016.3
20260902120104 80 0 0.0 3.0 0.00 0.00 0.00 100 1016.3
20260902114559 79 0 0.0 1.0 0.00 0.00 0.00 100 1016.1
20260902113053 79 0 0.0 1.0 0.00 0.00 0.00 99 1016.1
20260902111601 79 0 0.0 2.0 0.00 0.00 0.00 99 1015.9
20260902110103 78 0 0.0 0.0 0.00 0.00 0.00 99 1015.8
20260902104604 78 0 0.0 1.0 0.00 0.00 0.00 99 1015.8
20260902103056 78 0 0.0 1.0 0.00 0.00 0.00 99 1015.7
20260902101554 78 0 0.0 1.0 0.00 0.00 0.00 99 1015.6
20260902100055 78 0 0.0 0.0 0.00 0.00 0.00 99 1015.7
20260902094602 78 0 0.0 0.0 0.00 0.00 0.00 99 1015.4
20260902093107 78 0 0.0 1.0 0.00 0.00 0.00 99 1015.2
20260902091605 78 0 0.0 1.0 0.00 0.00 0.00 99 1015.2
20260902084559 78 0 0.0 1.0 0.00 0.00 0.00 98 1015.2
20260902083108 78 0 0.0 0.0 0.00 0.00 0.00 98 1015.3
20260902081555 78 0 0.0 2.0 0.00 0.00 0.00 98 1015.2
20260902080113 78 0 0.0 0.0 0.00 0.00 0.00 98 1015.4
20260902074600 78 0 0.0 0.0 0.00 0.00 0.00 98 1015.6
20260902073057 78 0 0.0 0.0 0.00 0.00 0.00 98 1015.5
20260902071603 78 0 0.0 0.0 0.00 0.00 0.00 98 1015.5
20260902070108 79 0 0.0 0.0 0.00 0.00 0.00 98 1015.5
20260902064600 79 0 0.0 0.0 0.00 0.00 0.00 98 1015.3
20260902063104 79 0 0.0 0.0 0.00 0.00 0.00 98 1015.1
20260902061612 79 0 0.0 0.0 0.00 0.00 0.00 98 1015.2
20260902060105 79 0 0.0 0.0 0.00 0.00 0.00 97 1015.3
20260902054609 79 0 0.0 0.0 0.00 0.00 0.00 97 1015.1
20260902053059 79 0 0.0 0.0 0.00 0.00 0.00 97 1015.4
20260902051601 79 0 0.0 0.0 0.00 0.00 0.00 97 1015.2
20260902044605 80 0 0.0 0.0 0.00 0.00 0.00 96 1015.3
20260902043108 80 0 0.0 0.0 0.00 0.00 0.00 96 1015.5
20260902041600 80 0 0.0 0.0 0.00 0.00 0.00 96 1015.7
20260902034556 80 0 0.0 0.0 0.00 0.00 0.00 96 1015.6
20260902033108 80 0 0.0 0.0 0.00 0.00 0.00 95 1015.9
20260902031603 81 0 0.0 1.0 0.00 0.00 0.00 95 1016.2
20260902030103 81 0 0.0 3.0 0.00 0.00 0.00 95 1016.3
20260902024602 81 0 0.0 1.0 0.00 0.00 0.00 95 1016.6
20260902023102 81 0 0.0 2.0 0.00 0.00 0.00 95 1016.2
20260902021609 81 0 0.0 1.0 0.00 0.00 0.00 94 1016.5
20260902020104 81 0 0.0 3.0 0.00 0.00 0.00 94 1016.1
20260902014600 81 0 1.0 3.0 0.00 0.00 0.00 94 1016.3
20260902013059 81 0 1.0 4.0 0.00 0.00 0.00 94 1016.0
20260902011601 81 93 0.0 3.0 0.00 0.00 0.00 94 1015.8
20260902010105 81 95 0.0 4.0 0.00 0.00 0.00 93 1015.8
20260902004558 81 0 0.0 3.0 0.00 0.00 0.00 93 1016.0
20260902003104 82 0 0.0 3.0 0.00 0.00 0.00 93 1015.7
20260902001554 82 78 1.0 4.0 0.00 0.00 0.00 92 1016.0
20260902000057 82 105 0.0 4.0 0.00 0.00 0.00 92 1015.7
20260901234607 82 0 1.0 7.0 0.00 0.00 0.00 91 1015.6
20260901233058 82 0 0.0 4.0 0.00 0.00 0.00 90 1015.6
20260901231600 83 0 0.0 7.0 0.00 0.00 0.00 89 1015.5
20260901230103 83 86 0.0 4.0 0.00 0.00 0.00 88 1015.4
20260901224602 84 0 2.0 9.0 0.00 0.00 0.00 87 1015.2
20260901223103 85 26 2.0 9.0 0.00 0.00 0.00 85 1015.4
20260901221620 85 5 2.0 8.0 0.00 0.00 0.00 84 1015.3
20260901220127 85 109 2.0 9.0 0.00 0.00 0.00 82 1015.4
20260901214600 85 85 2.0 4.0 0.00 0.00 0.00 81 1015.5
20260901213117 85 42 2.0 6.0 0.00 0.00 0.00 80 1015.3